星链-35089 (STARLINK-35089)

导读 | 豆包AI

STARLINK-35089是由美国于2025年9月3日发射的星链系列低轨卫星,隶属于SpaceX星链互联网星座项目,其主要任务是为全球用户提供高速低延迟的宽带互联网服务,尤其覆盖偏远地区、海洋空域等传统网络难以触及的区域。该卫星延续星链标准设计,批量入轨持续完善星座全球覆盖能力,助力SpaceX实现全球卫星互联组网目标。

Basic Information
目录编号:
65484
目录名称:
STARLINK-35089
国际标识:
2025-195AC
轨道中心:
EARTH
卫星名称:
星链-35089
卫星全名:
星链-35089 (STARLINK-35089)
卫星状态:
在轨 (已飞行192 天)
发射日期:
2025-09-03 UTC
国别 :
美国 (US)
星等 :
--
Orbit Information
数据来源 国际轨道数据 AOE轨道数据
星历时间 2026-03-14T02:25:32+0800
17小时前
查看轨道信息
2026-03-14T10:00:00+0800
10小时前
查看轨道信息
半长轴 6853.311km 6853.21km
偏心率 0.000086 0.0001611
轨道倾角 53.159° 53.160°
近地点辐角 182.369° 57.448°
升交点赤经 239.523° 238.060°
平近点角 177.730° 242.241°
近地点 474.584km 473.968km
远地点 475.764km 476.178km
周期 94.104分钟 94.102分钟
每日圈数 15.302138 15.302478
Detailed Information
固有亮度:
5
最大亮度:
2.5
卫星平台:
Starlink V1.0
覆盖范围:
全球
运营商:
太空探索技术公司
运营商所在国:
美国
制造商(研发单位):
太空探索技术公司
制造商所在国:
美国
使用方式:
暂无
Satellite Introduction
Starlink 计划是 SpaceX 推出的全球卫星互联网项目,通过发射低轨道卫星,为全球尤其是偏远地区提供高速、低延迟的互联网服务。自 2019 年起,Starlink 已部署数千颗卫星,旨在缩小全球数字鸿沟,推动互联网普及。该项目还为军事、航空等行业提供通信支持,带来广泛经济效益。
2D Orbit Map
3D Orbit Map
Orbit Altitude Analysis Chart
Orbit Inclination Analysis Chart
Orbit Comprehensive Analysis Chart
View Comprehensive Chart